Powrót do katalogu

STARLINK-31872

AktywnyŁącznośćVLEO
NORAD 59922·PAYLOAD·🇺🇸 United States

Wystrzelony Jun 1, 2024 z Cape Canaveral Space Force Station

Loading…

Następne Przeloty (najbliższe 24 godziny)

TLE

ŚwieżeSource: CelesTrak SupGP

Epoka: Sep 14, 2026, 14:28 UTC

1 59922C 24106A   26257.60326389 -.00000577  00000+0 -20915-4 0  2577
2 59922  43.0031 345.9819 0001352 272.4464 343.4113 15.27567214    19

Śledź STARLINK-31872 w czasie rzeczywistym z AllMySat

Download on the App Store